sat.trackr.live / text

‹ back to catalog

STARLINK-3349

NORAD 50813 · 2022-001L

PAYLOAD ACTIVE UNKNOWN

§ Identity

Operator
Country
US
Launch date
2022-01-06
Launch site
AFETR
Launch vehicle
Mass (kg)
RCS (m²)

Purposes: comms

External: N2YO · Heavens-Above · Gunter

§ Orbital elements

Epoch: 2026-09-19T15:50:27.195072Z

Period
92.59 min
Inclination
53.1968°
Eccentricity
0.0002560
Mean motion
15.55309460 rev/d
Perigee alt
399.5 km
Apogee alt
403.0 km
Semi-major
6,779.4 km
B*
7.3082e-4
RAAN
282.1392°
Arg perigee
16.0231°
Mean anomaly
344.0862°
Rev number
26,105

§ Raw data

STARLINK-33491 50813U 22001L   26262.66003698  .00050285  00000+0  73082-3 0  99902 50813  53.1968 282.1392 0002560  16.0231 344.0862 15.55309460261053

JSON: /api/v1/satellites/50813 · /tle

For live sub-satellite position, see the globe view (requires WebGL).

§ Visibility from observer

Set your observer location to see the next 7 days of passes ≥ 10°. The values pass through the URL so the page stays shareable.

No JS? Fill the form by hand. The geolocation button needs JavaScript.